[[{"header":{"parameterUnit":"m.s-1","parameterCategory":2,"la1":30.2991,"la2":30.254,"lo1":-89.0895,"lo2":-89.0444,"dy":0.0017,"dx":0.0017,"nx":28,"ny":28,"refTime":"2024-04-10T21:00:00:Z","depth":"0","parameterNumber":2,"parameterNumberName":"U-component_of_CURRENTS"},"data":[0,0,0,0,0,0,0,0,0,0,0,0,0,0,0,0,0,0,0,0,0,0,0,0,0,0,0,0,0,0,0,0,0,0,0,0,0,0,0,0,0,0,0,0,0,0,0,0,0,0,0,0,0,0,0,0,0,0,0.3405,0.3406,0,0.3446,0.3447,0.3447,0.3431,0.3431,0.343,0.3429,0.3426,0.3426,0.3427,0,0,0,0,0,0,0,0,0,0,0,0,0,0.3312,0.3314,0.3405,0.3406,0.3406,0.3446,0.3447,0.3447,0.3432,0.3431,0.3429,0.3429,0.3425,0.3426,0.3427,0,0,0,0,0,0,0,0,0,0,0,0,0,0.3352,0.3314,0.3405,0.3404,0.3404,0.3446,0.3447,0.3447,0.3432,0.3431,0.3429,0.3428,0.3425,0.3426,0.3427,0.346,0,0,0.3431,0.3431,0,0,0,0,0,0,0,0,0.335,0.3355,0.3404,0.3404,0.3405,0.3433,0.3413,0.345,0.3432,0.342,0.3429,0.3427,0.3426,0.3427,0.3437,0.3459,0.3459,0.3431,0.3431,0.3432,0.3432,0,0,0,0,0,0,0,0.3347,0.3353,0.342,0.3404,0.3405,0.3401,0.3405,0.342,0.3428,0.3421,0.3421,0.3427,0.3425,0.3436,0.3436,0.3459,0.3431,0.3432,0.3432,0.3433,0.351,0.3512,0,0,0,0,0,0,0.3346,0.3351,0.3419,0.3422,0.3375,0.3404,0.3409,0.3425,0.3429,0.3429,0.3428,0.3426,0.3434,0.3435,0.3436,0.347,0.3432,0.3433,0.3433,0.3509,0.3511,0.3512,0,0,0,0,0,0,0.3344,0.3352,0.3418,0.3387,0.3395,0.3407,0.3425,0.3426,0.3443,0.3435,0.3433,0.3444,0.3433,0.3434,0.3453,0.347,0.3433,0.3434,0.3507,0.351,0.3511,0.3541,0,0,0,0,0,0,0.3341,0.3351,0.3362,0.3388,0.3397,0.3441,0.3427,0.3428,0.3449,0.3447,0.3448,0.3446,0.3432,0.3452,0.3454,0.347,0.3435,0.3506,0.3508,0.3511,0.3538,0.3544,0.3548,0,0,0,0,0,0.3338,0.3349,0.3363,0.3371,0.3413,0.3441,0.3446,0.3448,0.3451,0.3459,0.3463,0.3446,0.347,0.3454,0.3456,0.3473,0.3504,0.3508,0.3511,0.3536,0.3542,0.3548,0,0,0,0,0,0,0.3309,0.335,0.3365,0.3388,0.3416,0.3439,0.3445,0.3461,0.3475,0.3469,0.3466,0.3465,0.3489,0.3484,0.3467,0.3506,0.3485,0.3489,0.3503,0.3509,0.3515,0.351,0.3436,0,0,0,0,0,0.3313,0.333,0.3373,0.3388,0.3406,0.3434,0.3448,0.3455,0.3471,0.3476,0.3479,0.3487,0.3507,0.3509,0.3519,0.3542,0.3526,0.3556,0.3561,0.3566,0.3566,0.3536,0.3538,0.3523,0.3523,0.3523,0,0,0.3304,0.3328,0.3337,0.3383,0.3403,0.3436,0.3438,0.3459,0.3491,0.3475,0.3505,0.3507,0.352,0.3541,0.3551,0.3536,0.357,0.357,0.3573,0.3571,0.354,0.3541,0.3542,0.3525,0.3525,0.3524,0,0,0.3288,0.3321,0.3333,0.3367,0.3404,0.343,0.3443,0.3478,0.3497,0.3534,0.3532,0.3546,0.3572,0.3578,0.359,0.3636,0.3603,0.3639,0.3655,0.3626,0.3627,0.3626,0.3637,0.3637,0.3635,0.3635,0.3635,0,0.328,0.3305,0.3339,0.3368,0.3391,0.3434,0.3458,0.3501,0.3534,0.3533,0.3544,0.357,0.3594,0.3613,0.364,0.3647,0.3629,0.3626,0.363,0.3629,0.3629,0.3639,0.3639,0.3637,0.3637,0.3637,0.3637,0,0.328,0.3309,0.3319,0.3374,0.3405,0.343,0.3495,0.3519,0.3548,0.3566,0.3588,0.3618,0.3617,0.3645,0.3669,0.3678,0.367,0.3641,0.3607,0.3631,0.3642,0.3642,0.364,0.3639,0.3639,0.3638,0,0,0.3246,0.3307,0.3314,0.3338,0.341,0.3434,0.3488,0.3528,0.3548,0.358,0.3592,0.3651,0.3636,0.3652,0.367,0.3674,0.3692,0.3663,0.3661,0.3662,0.3647,0.3651,0.365,0.3645,0.3644,0.3644,0.3666,0,0.3238,0.3283,0.3314,0.3359,0.3394,0.3439,0.3486,0.3523,0.356,0.3585,0.3609,0.364,0.3651,0.3664,0.3661,0.3695,0.3687,0.3691,0.3633,0.3633,0.3621,0.3648,0.3558,0.3569,0.3665,0.3665,0.3665,0,0.3229,0.3268,0.33,0.3356,0.3372,0.3402,0.3451,0.3495,0.3539,0.3561,0.3561,0.3593,0.3634,0.3639,0.3655,0.3648,0.3648,0.3665,0.3664,0.3652,0.3634,0.3555,0.3564,0.3492,0.3664,0.3664,0.3664,0,0.3186,0.3252,0.3269,0.3295,0.3369,0.3376,0.3414,0.3464,0.3492,0.3543,0.3562,0.3579,0.3618,0.3604,0.3666,0.3649,0.3682,0.3648,0.3641,0.3642,0.3549,0.3543,0.3465,0.3623,0.3623,0.3623,0.3623,0,0.3164,0.3179,0.3251,0.3266,0.3283,0.3349,0.3358,0.3398,0.3454,0.3472,0.3536,0.3572,0.3609,0.3645,0.3657,0.3668,0.3657,0.3654,0.3641,0.3563,0.3558,0.3477,0.3452,0.3623,0.3623,0.3623,0.3623,0,0.3093,0.3142,0.3163,0.3238,0.3254,0.3264,0.3319,0.3328,0.3406,0.344,0.3465,0.3568,0.363,0.3671,0.3696,0.3671,0.3588,0.3673,0.3612,0.3591,0.3503,0.3484,0.3265,0.3172,0.3656,0.3656,0.3656,0,0.3055,0.306,0.3119,0.3118,0.314,0.3171,0.3179,0.3272,0.3297,0.3434,0.3446,0.3559,0.3612,0.368,0.3685,0.3694,0.3581,0.3597,0.3543,0.3495,0.3464,0.3313,0.3239,0.3445,0.3443,0.3442,0.3441,0,0.2975,0.2984,0.2999,0.3008,0.3015,0.3029,0.3073,0.3092,0.3204,0.3275,0.3368,0.3443,0.3565,0.3566,0.3622,0.3609,0.3444,0.3569,0.3504,0.3287,0.3128,0.3034,0.3471,0.3429,0.343,0.3431,0.3431,0.3432,0.2887,0.2867,0.2875,0.2866,0.2874,0.2868,0.2842,0.292,0.2965,0.3053,0.322,0.3289,0.3431,0.3513,0.3474,0.3397,0.3361,0.3315,0.33,0.3155,0.3034,0.348,0.3431,0.3433,0.3434,0.3435,0.3435,0,0.2758,0.2742,0.2732,0.2708,0.2662,0.2723,0.2738,0.2705,0.2718,0.2881,0.2973,0.3113,0.3159,0.3226,0.3259,0.3159,0.2973,0.3075,0.2833,0.2777,0.3165,0.313,0.3031,0.3031,0.3031,0.3032,0.3032,0.3032,0.2687,0.2612,0.2607,0.2496,0.2481,0.2394,0.2376,0.2375,0.245,0.2525,0.2618,0.2755,0.2993,0.3111,0.304,0.2959,0.2729,0.2615,0.2585,0.2887,0.2907,0.2926,0.2884,0.2736,0.2735,0.2075,0.2071,0.2067]},{"header":{"parameterUnit":"m.s-1","parameterCategory":2,"la1":30.2991,"la2":30.254,"lo1":-89.0895,"lo2":-89.0444,"dy":0.0017,"dx":0.0017,"nx":28,"ny":28,"refTime":"2024-04-10T21:00:00:Z","depth":"0","parameterNumber":3,"parameterNumberName":"V-component_of_CURRENTS"},"data":[0,0,0,0,0,0,0,0,0,0,0,0,0,0,0,0,0,0,0,0,0,0,0,0,0,0,0,0,0,0,0,0,0,0,0,0,0,0,0,0,0,0,0,0,0,0,0,0,0,0,0,0,0,0,0,0,0,0,-0.0175,-0.0176,0,-0.0235,-0.0236,-0.0237,-0.0281,-0.0281,-0.0281,-0.0281,-0.0351,-0.0353,-0.0355,0,0,0,0,0,0,0,0,0,0,0,0,0,-0.0172,-0.0172,-0.0175,-0.0176,-0.0176,-0.0234,-0.0236,-0.0237,-0.0281,-0.0281,-0.0281,-0.0281,-0.0351,-0.0353,-0.0355,0,0,0,0,0,0,0,0,0,0,0,0,0,-0.0201,-0.0172,-0.0175,-0.0201,-0.0204,-0.0234,-0.0236,-0.0237,-0.0281,-0.0281,-0.0281,-0.028,-0.035,-0.0353,-0.0356,-0.0375,0,0,-0.0364,-0.0366,0,0,0,0,0,0,0,0,-0.0199,-0.0201,-0.0197,-0.0199,-0.0202,-0.0246,-0.026,-0.0282,-0.0281,-0.0257,-0.0281,-0.028,-0.0314,-0.032,-0.0338,-0.0378,-0.0381,-0.0365,-0.0366,-0.0368,-0.0369,0,0,0,0,0,0,0,-0.0197,-0.02,-0.0204,-0.0197,-0.0201,-0.0234,-0.0238,-0.0265,-0.0289,-0.0259,-0.0261,-0.026,-0.0316,-0.0335,-0.034,-0.0382,-0.0365,-0.0367,-0.0369,-0.037,-0.0418,-0.0418,0,0,0,0,0,0,-0.0176,-0.0197,-0.0202,-0.0205,-0.0195,-0.0234,-0.0238,-0.0236,-0.0288,-0.0295,-0.026,-0.0262,-0.033,-0.0336,-0.0342,-0.0327,-0.0368,-0.037,-0.0372,-0.0419,-0.0418,-0.0418,0,0,0,0,0,0,-0.0176,-0.0176,-0.0199,-0.0199,-0.0204,-0.0233,-0.0231,-0.0237,-0.0248,-0.0288,-0.0296,-0.0263,-0.033,-0.0338,-0.0353,-0.0331,-0.0372,-0.0374,-0.0419,-0.0418,-0.0418,-0.0323,0,0,0,0,0,0,-0.0176,-0.0176,-0.0169,-0.0197,-0.0203,-0.0199,-0.023,-0.0238,-0.0246,-0.0249,-0.0293,-0.03,-0.0331,-0.0348,-0.0356,-0.0336,-0.0377,-0.042,-0.0419,-0.0418,-0.0326,-0.0319,-0.0312,0,0,0,0,0,-0.0175,-0.015,-0.0168,-0.0168,-0.0191,-0.0197,-0.0203,-0.0228,-0.0246,-0.0241,-0.0273,-0.0299,-0.0348,-0.035,-0.0359,-0.034,-0.042,-0.0419,-0.0418,-0.0329,-0.032,-0.0312,0,0,0,0,0,0,-0.0133,-0.0153,-0.0173,-0.0153,-0.0169,-0.0202,-0.0197,-0.0221,-0.0245,-0.0249,-0.0294,-0.0302,-0.0309,-0.034,-0.0341,-0.0353,-0.0389,-0.0389,-0.0318,-0.031,-0.0303,-0.0269,-0.0379,0,0,0,0,0,-0.0123,-0.0117,-0.0142,-0.0126,-0.0132,-0.0168,-0.0175,-0.0193,-0.0216,-0.0227,-0.0258,-0.0291,-0.0315,-0.0323,-0.0353,-0.0356,-0.038,-0.0351,-0.0344,-0.0338,-0.0317,-0.0335,-0.0327,-0.0414,-0.0414,-0.0414,0,0,-0.01,-0.0111,-0.0107,-0.0118,-0.0137,-0.0128,-0.0172,-0.0172,-0.0161,-0.0231,-0.0226,-0.027,-0.0313,-0.0317,-0.0322,-0.0336,-0.0327,-0.0336,-0.033,-0.0313,-0.0333,-0.0325,-0.0317,-0.0413,-0.0414,-0.0414,0,0,-0.005,-0.0064,-0.0047,-0.0056,-0.0073,-0.0092,-0.0087,-0.0118,-0.0127,-0.0136,-0.018,-0.0202,-0.0245,-0.0261,-0.0278,-0.025,-0.0294,-0.0268,-0.0197,-0.0215,-0.0208,-0.0201,-0.0223,-0.0219,-0.0259,-0.0258,-0.0258,0,-0.0024,-0.0004,-0.004,-0.0025,-0.0018,-0.0069,-0.0042,-0.0058,-0.0088,-0.0082,-0.0119,-0.0172,-0.0212,-0.0204,-0.0198,-0.023,-0.0253,-0.0223,-0.0203,-0.0198,-0.0193,-0.0217,-0.0214,-0.0254,-0.0254,-0.0255,-0.0255,0,0.0036,0.005,0.0066,0.0064,0.0064,0.0083,0.0059,0.0063,0.0036,0.0013,0.0006,-0.0058,-0.0084,-0.0107,-0.0145,-0.0127,-0.016,-0.0195,-0.0218,-0.0178,-0.0207,-0.0205,-0.0247,-0.0249,-0.025,-0.0251,0,0,0.0096,0.0106,0.0109,0.013,0.0116,0.0129,0.0154,0.0166,0.0193,0.0142,0.0169,0.0111,0.0064,0.0043,-0.0014,-0.0033,-0.0029,-0.0092,-0.0095,-0.01,-0.0071,-0.0088,-0.0089,-0.0063,-0.0063,-0.0062,-0.0106,0,0.0154,0.0204,0.0193,0.0251,0.0278,0.0256,0.0289,0.0291,0.0271,0.0281,0.0219,0.0207,0.0125,0.0109,0.008,-0.0006,-0.0021,-0.0014,-0.0121,-0.0123,-0.0132,-0.0086,-0.0061,-0.0097,-0.0105,-0.0105,-0.0105,0,0.0218,0.0242,0.0307,0.0354,0.0365,0.0396,0.0443,0.0465,0.0462,0.0445,0.0416,0.0351,0.0316,0.0234,0.0132,0.0138,0.0052,-0.0019,-0.0023,-0.0065,-0.0136,-0.0141,-0.0095,-0.0261,-0.0103,-0.0104,-0.0104,0,0.028,0.0329,0.0389,0.0402,0.044,0.0482,0.0508,0.052,0.0558,0.0549,0.0563,0.0488,0.0458,0.0346,0.0187,0.0162,0.0069,0.0013,-0.0076,-0.008,-0.009,-0.0095,-0.0203,-0.0037,-0.0037,-0.0037,-0.0037,0,0.035,0.0399,0.0428,0.0462,0.0553,0.0552,0.0642,0.0657,0.0684,0.0748,0.0652,0.0677,0.0484,0.0397,0.0243,0.0094,0.0112,-0.0043,-0.0081,-0.0059,-0.006,-0.0233,-0.0322,-0.0039,-0.0039,-0.0038,-0.0038,0,0.041,0.0427,0.0503,0.0557,0.0587,0.0651,0.0737,0.0798,0.081,0.0891,0.0896,0.0823,0.0714,0.0516,0.033,0.0179,-0.0057,-0.003,0.0007,-0.0025,-0.0267,-0.035,-0.0478,-0.0542,-0.0128,-0.0129,-0.0129,0,0.0446,0.049,0.0572,0.0627,0.0659,0.075,0.082,0.0862,0.0933,0.0994,0.1047,0.0964,0.0937,0.0648,0.0361,0.0103,-0.0057,-0.0051,-0.009,-0.0255,-0.0378,-0.0441,-0.049,-0.0076,-0.0076,-0.0076,-0.0076,0,0.0513,0.0541,0.06,0.0709,0.0795,0.0899,0.1004,0.1086,0.1155,0.1223,0.1304,0.1289,0.102,0.0763,0.0391,0.0206,-0.0152,-0.0058,-0.0234,-0.0336,-0.0404,-0.0492,-0.0084,-0.0075,-0.0075,-0.0075,-0.0075,-0.0075,0.0562,0.0614,0.0692,0.0803,0.0906,0.1048,0.1156,0.1271,0.1411,0.1549,0.1511,0.1532,0.1145,0.0645,0.0353,-0.0153,-0.0157,-0.0304,-0.039,-0.0437,-0.0501,-0.0089,-0.0123,-0.0124,-0.0124,-0.0124,-0.0124,0,0.0614,0.0678,0.0781,0.0919,0.1045,0.1091,0.1279,0.1398,0.1582,0.1705,0.1777,0.1616,0.1137,0.064,-0.0047,-0.0418,-0.0545,-0.0621,-0.0711,-0.0745,-0.0382,-0.0382,-0.0466,-0.0465,-0.0465,-0.0465,-0.0465,-0.0465,0.0642,0.0743,0.0799,0.1015,0.1121,0.1309,0.1429,0.1606,0.1739,0.1906,0.1938,0.1934,0.1563,0.0299,-0.0559,-0.0759,-0.0999,-0.1055,-0.1189,-0.0961,-0.0939,-0.0917,-0.094,-0.1139,-0.114,-0.1497,-0.1501,-0.1504]}],[{"header":{"parameterUnit":"m.s-1","parameterCategory":2,"la1":30.2991,"la2":30.254,"lo1":-89.0895,"lo2":-89.0444,"dy":0.0017,"dx":0.0017,"nx":28,"ny":28,"refTime":"2024-04-10T21:00:00:Z","depth":"2","parameterNumber":2,"parameterNumberName":"U-component_of_CURRENTS"},"data":[0,0,0,0,0,0,0,0,0,0,0,0,0,0,0,0,0,0,0,0,0,0,0,0,0,0,0,0,0,0,0,0,0,0,0,0,0,0,0,0,0,0,0,0,0,0,0,0,0,0,0,0,0,0,0,0,0,0,0.2734,0.2734,0,0.2787,0.2788,0.2788,0.2806,0.2806,0.2806,0.2806,0.2846,0.2847,0.2849,0,0,0,0,0,0,0,0,0,0,0,0,0,0.2664,0.2665,0.2734,0.2734,0.2735,0.2787,0.2788,0.2788,0.2806,0.2806,0.2806,0.2806,0.2846,0.2847,0.2849,0,0,0,0,0,0,0,0,0,0,0,0,0,0.2702,0.2665,0.2733,0.2752,0.2754,0.2787,0.2788,0.2789,0.2806,0.2806,0.2806,0.2806,0.2846,0.2847,0.2849,0.2861,0,0,0.2854,0.2855,0,0,0,0,0,0,0,0,0.27,0.2704,0.2748,0.2751,0.2753,0.2792,0.2778,0.2813,0.2806,0.2785,0.2806,0.2806,0.2828,0.2831,0.2839,0.2863,0.2865,0.2854,0.2855,0.2856,0.2856,0,0,0,0,0,0,0,0.2697,0.2702,0.2753,0.2749,0.2752,0.2764,0.2768,0.2785,0.2805,0.2787,0.2788,0.2797,0.2829,0.2837,0.284,0.2865,0.2854,0.2856,0.2857,0.2857,0.2951,0.2952,0,0,0,0,0,0,0.2693,0.27,0.2751,0.2755,0.2728,0.2765,0.277,0.2778,0.2805,0.2809,0.2797,0.2798,0.2835,0.2838,0.2842,0.29,0.2856,0.2858,0.2858,0.295,0.2951,0.2953,0,0,0,0,0,0,0.2692,0.2697,0.2749,0.273,0.2737,0.2766,0.2775,0.2779,0.2822,0.2813,0.2817,0.284,0.2835,0.2839,0.2862,0.29,0.2858,0.286,0.2948,0.295,0.2952,0.2989,0,0,0,0,0,0,0.2689,0.2696,0.2703,0.273,0.2739,0.2784,0.2775,0.278,0.2827,0.2829,0.2851,0.2852,0.2835,0.2859,0.2863,0.2901,0.2861,0.2946,0.2949,0.2951,0.2986,0.2992,0.2998,0,0,0,0,0,0.2687,0.2698,0.2703,0.2709,0.2746,0.2785,0.2791,0.281,0.2829,0.2849,0.2853,0.2853,0.288,0.2861,0.2866,0.2905,0.2945,0.2948,0.2951,0.2984,0.2991,0.2998,0,0,0,0,0,0,0.2675,0.2702,0.2708,0.2727,0.276,0.2789,0.2807,0.2837,0.286,0.2857,0.2863,0.2864,0.2904,0.2901,0.288,0.2942,0.2918,0.2922,0.2941,0.2948,0.2954,0.294,0.2863,0,0,0,0,0,0.2674,0.2686,0.2721,0.2738,0.2755,0.2793,0.2815,0.2829,0.2852,0.2865,0.2885,0.29,0.2918,0.2928,0.294,0.297,0.2959,0.3003,0.3008,0.3013,0.3007,0.3003,0.3007,0.2964,0.2964,0.2964,0,0,0.2671,0.2691,0.2696,0.2736,0.276,0.2788,0.2806,0.2842,0.2869,0.2864,0.2909,0.2926,0.2933,0.2959,0.2978,0.2962,0.3027,0.3017,0.3021,0.3012,0.3007,0.3011,0.3014,0.2966,0.2966,0.2965,0,0,0.2672,0.2695,0.2703,0.274,0.278,0.2797,0.2822,0.2869,0.2893,0.2933,0.2938,0.2971,0.3009,0.3011,0.3019,0.307,0.3062,0.3093,0.3106,0.3103,0.3106,0.3108,0.3122,0.3126,0.309,0.309,0.309,0,0.2665,0.2685,0.2715,0.2746,0.2768,0.2811,0.2832,0.2869,0.2919,0.2934,0.2949,0.3008,0.3029,0.3052,0.3074,0.3083,0.3081,0.3076,0.3109,0.3111,0.3112,0.3126,0.3129,0.3092,0.3092,0.3092,0.3092,0,0.268,0.2701,0.2718,0.2758,0.2788,0.2816,0.2863,0.2903,0.2943,0.2969,0.3018,0.304,0.3068,0.31,0.3105,0.3139,0.3136,0.3119,0.3085,0.3118,0.3131,0.3134,0.3095,0.3095,0.3094,0.3093,0,0,0.2638,0.2707,0.2714,0.2733,0.2793,0.2819,0.2865,0.2905,0.2944,0.2992,0.3034,0.3083,0.3101,0.3112,0.3133,0.3144,0.318,0.3143,0.3142,0.3147,0.3186,0.3162,0.3163,0.3163,0.3164,0.3164,0.3198,0,0.2633,0.2679,0.2713,0.2751,0.2774,0.2825,0.2867,0.2912,0.2961,0.3017,0.3045,0.3098,0.3103,0.3136,0.3142,0.3184,0.3184,0.3173,0.3161,0.3161,0.3126,0.3163,0.2944,0.2953,0.32,0.32,0.32,0,0.2631,0.2658,0.269,0.2743,0.2759,0.2794,0.2856,0.2901,0.2976,0.3016,0.3053,0.3094,0.3143,0.3141,0.3177,0.317,0.3176,0.3193,0.3194,0.3154,0.3141,0.2956,0.2948,0.3204,0.3203,0.3203,0.3203,0,0.2582,0.2641,0.2658,0.2684,0.2753,0.2779,0.2823,0.2898,0.2939,0.3027,0.3069,0.3109,0.3159,0.3161,0.3213,0.3198,0.3248,0.3223,0.3194,0.3194,0.2995,0.2976,0.3216,0.3216,0.3216,0.3216,0.3216,0,0.2565,0.2577,0.2646,0.2662,0.2688,0.2754,0.2799,0.2859,0.2944,0.2989,0.3065,0.3113,0.3168,0.321,0.3219,0.3228,0.3243,0.3202,0.3197,0.3007,0.2989,0.3188,0.3185,0.3217,0.3217,0.3217,0.3217,0,0.2507,0.2556,0.2573,0.2643,0.2667,0.2692,0.2785,0.2818,0.2917,0.2985,0.3019,0.3131,0.32,0.3241,0.3282,0.3247,0.3256,0.3243,0.3035,0.3005,0.3201,0.3199,0.321,0.321,0.3209,0.3209,0.3208,0,0.248,0.2487,0.2546,0.2558,0.259,0.2644,0.2673,0.2785,0.283,0.2987,0.3009,0.3129,0.3179,0.3244,0.3229,0.3228,0.3264,0.3008,0.2933,0.3204,0.3199,0.3198,0.3197,0.2692,0.2687,0.2683,0.268,0,0.2414,0.2437,0.2453,0.2477,0.2509,0.254,0.2609,0.2643,0.2774,0.2849,0.2949,0.3016,0.3113,0.3035,0.3063,0.3026,0.2995,0.2934,0.325,0.2741,0.2721,0.2715,0.2729,0.2647,0.265,0.2653,0.2655,0.2656,0.2354,0.2342,0.2365,0.2377,0.2405,0.2419,0.2416,0.2504,0.2564,0.2651,0.2801,0.2823,0.2876,0.2817,0.2731,0.2666,0.2865,0.2723,0.2731,0.2744,0.2692,0.2673,0.2581,0.2584,0.2587,0.2589,0.2591,0,0.226,0.2257,0.2263,0.2263,0.2241,0.2304,0.2341,0.2321,0.2349,0.2469,0.2545,0.2397,0.2376,0.2408,0.2273,0.2279,0.2215,0.2174,0.2069,0.2107,0.214,0.2051,0.1773,0.177,0.1767,0.1764,0,0,0.2211,0.2164,0.2158,0.209,0.2095,0.2039,0.2036,0.2039,0.2089,0.2086,0.2097,0.2295,0.2376,0.2053,0.2019,0.1866,0.1957,0.1792,0.2463,0.238,0.2408,0.249,0.2404,0,0,0,0,0]},{"header":{"parameterUnit":"m.s-1","parameterCategory":2,"la1":30.2991,"la2":30.254,"lo1":-89.0895,"lo2":-89.0444,"dy":0.0017,"dx":0.0017,"nx":28,"ny":28,"refTime":"2024-04-10T21:00:00:Z","depth":"2","parameterNumber":3,"parameterNumberName":"V-component_of_CURRENTS"},"data":[0,0,0,0,0,0,0,0,0,0,0,0,0,0,0,0,0,0,0,0,0,0,0,0,0,0,0,0,0,0,0,0,0,0,0,0,0,0,0,0,0,0,0,0,0,0,0,0,0,0,0,0,0,0,0,0,0,0,0.0182,0.0182,0,0.0133,0.0132,0.0132,0.0082,0.0082,0.0081,0.0081,0.0011,0.001,0.0008,0,0,0,0,0,0,0,0,0,0,0,0,0,0.0177,0.0178,0.0182,0.0182,0.0182,0.0133,0.0132,0.0131,0.0082,0.0082,0.0081,0.008,0.0012,0.001,0.0008,0,0,0,0,0,0,0,0,0,0,0,0,0,0.0157,0.0178,0.0182,0.0153,0.015,0.0133,0.0132,0.0131,0.0082,0.0082,0.0081,0.008,0.0012,0.001,0.0008,0.0009,0,0,0.0002,0.0001,0,0,0,0,0,0,0,0,0.0158,0.0157,0.0158,0.0155,0.0151,0.0115,0.0105,0.009,0.0082,0.0106,0.0081,0.008,0.0046,0.0041,0.003,0.0005,0.0002,0.0001,0.0,-0.0001,-0.0001,0,0,0,0,0,0,0,0.016,0.0159,0.0161,0.0157,0.0154,0.0123,0.0119,0.0102,0.0078,0.0103,0.01,0.0099,0.0044,0.0033,0.0028,0.0001,0.0001,-0.0,-0.0002,-0.0003,-0.0037,-0.0036,0,0,0,0,0,0,0.0174,0.016,0.0162,0.0159,0.0156,0.0124,0.012,0.0126,0.0079,0.0072,0.0099,0.0097,0.0037,0.0031,0.0026,0.0028,-0.0001,-0.0003,-0.0004,-0.0037,-0.0037,-0.0036,0,0,0,0,0,0,0.0175,0.0175,0.0164,0.016,0.0156,0.0125,0.0132,0.0125,0.0106,0.0076,0.0068,0.0086,0.0036,0.0029,0.0022,0.0025,-0.0004,-0.0006,-0.0038,-0.0037,-0.0037,0.003,0,0,0,0,0,0,0.0175,0.0176,0.0183,0.0161,0.0157,0.016,0.0132,0.0125,0.0108,0.0103,0.0063,0.0056,0.0035,0.0025,0.002,0.0021,-0.0007,-0.0038,-0.0037,-0.0037,0.0027,0.0033,0.0037,0,0,0,0,0,0.0175,0.0192,0.0184,0.0184,0.0169,0.0161,0.0156,0.0129,0.0108,0.0107,0.0087,0.0057,0.0025,0.0025,0.0018,0.0019,-0.0038,-0.0038,-0.0037,0.0025,0.0032,0.0037,0,0,0,0,0,0,0.0196,0.0189,0.0178,0.0193,0.018,0.0153,0.0153,0.0129,0.011,0.0108,0.0069,0.0062,0.0053,0.0029,0.003,0.001,-0.0015,-0.0016,0.0034,0.004,0.0045,0.0068,-0.0009,0,0,0,0,0,0.0206,0.0216,0.0199,0.0212,0.0208,0.0178,0.0169,0.0153,0.0135,0.0124,0.0094,0.0068,0.0052,0.0042,0.0022,0.0018,-0.0009,0.0011,0.0016,0.0021,0.0035,-0.0001,0.0002,-0.0034,-0.0034,-0.0034,0,0,0.0219,0.0216,0.0222,0.0217,0.0204,0.0214,0.017,0.0167,0.0176,0.0122,0.012,0.0084,0.0054,0.0051,0.0043,0.0032,0.0015,0.0022,0.0026,0.0038,0.0,0.0004,0.0007,-0.0033,-0.0033,-0.0033,0,0,0.0253,0.0247,0.0266,0.026,0.025,0.0239,0.0238,0.0211,0.0199,0.0196,0.0158,0.0133,0.0102,0.0085,0.0073,0.0094,0.0042,0.0073,0.012,0.0086,0.0088,0.0091,0.0059,0.0058,0.0077,0.0078,0.0078,0,0.0269,0.0292,0.0269,0.0285,0.0292,0.0254,0.0278,0.0265,0.0238,0.0233,0.0207,0.0155,0.0125,0.0121,0.0128,0.0106,0.0075,0.0102,0.0093,0.0095,0.0096,0.0062,0.006,0.0081,0.0081,0.008,0.008,0,0.0313,0.0333,0.0345,0.0358,0.036,0.0376,0.0362,0.0356,0.0333,0.031,0.0289,0.0243,0.0212,0.019,0.0169,0.0158,0.013,0.0102,0.0081,0.0104,0.0067,0.0063,0.0086,0.0084,0.0083,0.0083,0,0,0.0352,0.0374,0.0377,0.0401,0.0403,0.0413,0.0434,0.0438,0.0446,0.0402,0.0403,0.036,0.0311,0.0295,0.0246,0.0215,0.0193,0.0167,0.0164,0.0143,0.0113,0.009,0.0084,0.0157,0.0157,0.0157,0.0084,0,0.0396,0.0446,0.0444,0.0499,0.0527,0.0512,0.0535,0.0531,0.0509,0.0497,0.0439,0.0419,0.0359,0.0339,0.0299,0.0218,0.0187,0.0215,0.0089,0.0086,0.0068,0.0081,0.0102,0.0038,0.008,0.008,0.0079,0,0.0441,0.0471,0.0532,0.0578,0.0589,0.0614,0.0642,0.0659,0.0635,0.0614,0.0572,0.0513,0.0465,0.0408,0.029,0.0307,0.0224,0.0157,0.0151,0.0108,0.0057,0.0021,0.003,0.0073,0.0073,0.0074,0.0074,0,0.0483,0.0535,0.0591,0.0606,0.0647,0.0673,0.0694,0.0689,0.0716,0.0684,0.0685,0.0599,0.0566,0.045,0.0309,0.0297,0.0173,0.0137,0.004,0.0036,0.0021,0.0017,0.0062,0.0062,0.0062,0.0062,0.0062,0,0.0535,0.0579,0.0615,0.0646,0.0718,0.0724,0.0787,0.0789,0.0799,0.084,0.0748,0.0751,0.0574,0.0477,0.0339,0.0182,0.0193,0.0056,0.0019,0.0044,0.0043,0.0046,0.0045,0.0059,0.006,0.006,0.0061,0,0.0573,0.0597,0.0666,0.0718,0.0743,0.0792,0.0865,0.0904,0.0903,0.0953,0.095,0.0864,0.0739,0.0554,0.0364,0.0232,0.0077,0.0019,0.0061,0.0031,-0.0045,-0.0041,-0.0095,-0.0096,-0.0097,-0.0098,-0.0099,0,0.0597,0.0636,0.0718,0.0765,0.0794,0.0868,0.0924,0.0956,0.1007,0.1031,0.1064,0.0957,0.09,0.0606,0.0346,0.0098,0.007,-0.0044,-0.0061,-0.0028,-0.0059,-0.0054,-0.0049,-0.006,-0.0061,-0.0061,-0.0061,0,0.0642,0.0669,0.0724,0.0823,0.0894,0.0985,0.1068,0.113,0.118,0.1215,0.1248,0.1205,0.0929,0.0669,0.0319,0.0156,-0.0007,-0.0059,-0.0037,-0.002,-0.0001,-0.0029,-0.0025,-0.0064,-0.0064,-0.0064,-0.0064,-0.0063,0.067,0.0715,0.0789,0.0886,0.0975,0.1093,0.118,0.1268,0.1368,0.1445,0.1391,0.1333,0.1035,0.0588,0.0279,-0.0041,-0.0018,-0.0126,-0.0123,-0.012,-0.0099,-0.0082,-0.0157,-0.0157,-0.0157,-0.0158,-0.0158,0,0.0698,0.0756,0.0846,0.0967,0.1073,0.1119,0.1272,0.136,0.1489,0.1545,0.1564,0.1278,0.0974,0.0633,0.0155,-0.0124,-0.0141,-0.0211,-0.0172,-0.0166,-0.0161,-0.0142,-0.0212,-0.0214,-0.0215,-0.0215,0,0,0.0713,0.0798,0.085,0.1028,0.1121,0.1277,0.1374,0.1501,0.158,0.1639,0.1603,0.152,0.1091,0.0736,0.0344,0.0064,0.002,0.0013,0.0091,0.0191,0.0199,-0.0078,-0.0038,0,0,0,0,0]}],[{"header":{"parameterUnit":"m.s-1","parameterCategory":2,"la1":30.2991,"la2":30.254,"lo1":-89.0895,"lo2":-89.0444,"dy":0.0017,"dx":0.0017,"nx":28,"ny":28,"refTime":"2024-04-10T21:00:00:Z","depth":"4","parameterNumber":2,"parameterNumberName":"U-component_of_CURRENTS"},"data":[0,0,0,0,0,0,0,0,0,0,0,0,0,0,0,0,0,0,0,0,0,0,0,0,0,0,0,0,0,0,0,0,0,0,0,0,0,0,0,0,0,0,0,0,0,0,0,0,0,0,0,0,0,0,0,0,0,0,0.1473,0.1474,0,0.1537,0.1538,0.1538,0.1584,0.1585,0.1586,0.1587,0.1692,0.1694,0.1695,0,0,0,0,0,0,0,0,0,0,0,0,0,0.1343,0.1345,0.1472,0.1474,0.1475,0.1537,0.1538,0.1538,0.1583,0.1585,0.1586,0.1587,0.1691,0.1693,0.1696,0,0,0,0,0,0,0,0,0,0,0,0,0,0.1396,0.1345,0.1472,0.1511,0.1515,0.1537,0.1538,0.1538,0.1583,0.1585,0.1586,0.1588,0.169,0.1693,0.1696,0.1683,0,0,0.1704,0.1706,0,0,0,0,0,0,0,0,0.1393,0.14,0.1504,0.1508,0.1514,0.156,0.1531,0.1591,0.1583,0.155,0.1587,0.1588,0.1655,0.1661,0.1659,0.1688,0.1692,0.1705,0.1706,0.1708,0.1708,0,0,0,0,0,0,0,0.1389,0.1397,0.1491,0.1505,0.1511,0.151,0.1519,0.1541,0.1588,0.1553,0.1558,0.1576,0.1657,0.1656,0.1662,0.1694,0.1705,0.1707,0.1709,0.171,0.183,0.1832,0,0,0,0,0,0,0.1396,0.1394,0.1489,0.1494,0.1464,0.1512,0.1521,0.1538,0.1588,0.1598,0.1575,0.1578,0.1651,0.1659,0.1666,0.1769,0.1708,0.171,0.1712,0.1829,0.183,0.1832,0,0,0,0,0,0,0.1393,0.1404,0.1487,0.1451,0.1462,0.1513,0.1531,0.1539,0.1563,0.1605,0.1615,0.1596,0.1652,0.1662,0.1719,0.1769,0.1711,0.1714,0.1827,0.1829,0.1831,0.19,0,0,0,0,0,0,0.1389,0.1402,0.1428,0.1451,0.1465,0.1514,0.1531,0.1539,0.1574,0.1579,0.1626,0.1636,0.1654,0.1715,0.1722,0.1772,0.1716,0.1825,0.1828,0.1831,0.1896,0.1905,0.1912,0,0,0,0,0,0.1384,0.141,0.1429,0.1442,0.1495,0.1516,0.1521,0.1557,0.1574,0.1584,0.1628,0.1636,0.1738,0.1718,0.1726,0.1778,0.1823,0.1827,0.183,0.1893,0.1903,0.1912,0,0,0,0,0,0,0.1373,0.1418,0.1439,0.1481,0.1506,0.1527,0.1554,0.1566,0.1603,0.1623,0.165,0.1663,0.1739,0.1738,0.1715,0.182,0.1784,0.1789,0.1828,0.1838,0.1846,0.1864,0.1718,0,0,0,0,0,0.1381,0.1415,0.1447,0.1485,0.1501,0.1527,0.1547,0.1565,0.1599,0.1617,0.1661,0.1706,0.1752,0.1779,0.1819,0.1863,0.1866,0.1902,0.191,0.1917,0.1936,0.1974,0.1987,0.1843,0.1843,0.1843,0,0,0.1394,0.1422,0.1445,0.1485,0.1511,0.1542,0.1542,0.1577,0.1615,0.1623,0.1706,0.1741,0.1772,0.184,0.1872,0.1849,0.1957,0.1921,0.1927,0.1943,0.1979,0.1993,0.2005,0.1846,0.1845,0.1845,0,0,0.1415,0.1454,0.1482,0.1504,0.1547,0.1567,0.158,0.162,0.1654,0.1716,0.1748,0.1811,0.1873,0.1915,0.1937,0.2006,0.2004,0.2019,0.2072,0.2108,0.212,0.2131,0.2144,0.2155,0.2016,0.2016,0.2017,0,0.1431,0.1468,0.1493,0.1519,0.1552,0.1581,0.1613,0.1647,0.1707,0.175,0.1758,0.1885,0.1913,0.1997,0.2032,0.2029,0.2037,0.2033,0.2119,0.213,0.214,0.215,0.2162,0.202,0.202,0.2019,0.2019,0,0.1459,0.1499,0.1518,0.157,0.1602,0.1635,0.1685,0.1739,0.179,0.183,0.1937,0.1979,0.2055,0.2074,0.208,0.2171,0.2151,0.213,0.2095,0.2159,0.2165,0.2176,0.2026,0.2024,0.2023,0.2022,0,0,0.1469,0.1527,0.1541,0.1571,0.1632,0.166,0.174,0.1815,0.1885,0.1954,0.2043,0.2132,0.2164,0.2192,0.221,0.2245,0.2322,0.2225,0.2225,0.2239,0.2393,0.2237,0.2233,0.2317,0.232,0.2322,0.2365,0,0.1489,0.1541,0.1572,0.1641,0.1672,0.1731,0.1805,0.1881,0.1957,0.2054,0.2113,0.2208,0.2202,0.2254,0.2292,0.2324,0.2356,0.2311,0.233,0.233,0.2184,0.2243,0.233,0.2374,0.2376,0.2378,0.2379,0,0.1499,0.1538,0.1598,0.168,0.1704,0.1763,0.1892,0.196,0.2088,0.215,0.2246,0.2293,0.2386,0.2359,0.2444,0.2417,0.2422,0.2428,0.2428,0.227,0.2195,0.2299,0.2399,0.2397,0.2396,0.2394,0.2393,0,0.1475,0.1556,0.1608,0.1634,0.1734,0.1799,0.1876,0.2004,0.2074,0.2225,0.2286,0.2393,0.2455,0.2491,0.251,0.2492,0.2574,0.254,0.24,0.2388,0.2485,0.2473,0.2597,0.2597,0.2596,0.2596,0.2596,0,0.146,0.151,0.1611,0.1638,0.1729,0.1809,0.1926,0.202,0.2152,0.2232,0.2339,0.2402,0.2496,0.2542,0.2544,0.2502,0.2601,0.2426,0.2397,0.251,0.2501,0.2492,0.2479,0.2598,0.2598,0.2597,0.2597,0,0.1414,0.1475,0.1541,0.1664,0.1712,0.1785,0.1937,0.2009,0.2151,0.2257,0.2307,0.2436,0.2498,0.2548,0.2608,0.2526,0.2514,0.2471,0.2592,0.2567,0.2295,0.2286,0.2321,0.2316,0.2312,0.2308,0.2305,0,0.1391,0.1418,0.1548,0.1591,0.1653,0.1773,0.1842,0.1997,0.2065,0.225,0.2278,0.2399,0.2462,0.2412,0.2485,0.2472,0.2439,0.2408,0.2353,0.2303,0.2272,0.2269,0.2265,0.2299,0.2298,0.2297,0.2295,0,0.1345,0.1401,0.1453,0.1539,0.1618,0.1697,0.1814,0.1848,0.2015,0.2149,0.22,0.2231,0.2289,0.232,0.2324,0.2312,0.2417,0.2363,0.2371,0.232,0.2276,0.2249,0.225,0.2281,0.2283,0.2284,0.2285,0,0.1316,0.1334,0.1401,0.1467,0.1552,0.1592,0.1671,0.1743,0.1824,0.2017,0.2031,0.2151,0.2274,0.2238,0.2245,0.2219,0.2182,0.2097,0.2118,0.2135,0.2052,0.1968,0.1866,0,0,0,0,0,0.1274,0.1272,0.1323,0.1375,0.1452,0.1506,0.1629,0.1707,0.1859,0.1842,0.1933,0.1979,0.2001,0.2065,0.1999,0.216,0.2189,0.2073,0.2102,0.22,0.2217,0.2135,0,0,0,0,0,0,0.1235,0.1274,0.1282,0.1281,0.1302,0.1374,0.1447,0.1555,0.1559,0.1718,0.174,0.1855,0.1906,0.2015,0.1961,0.1977,0.1952,0.2151,0.2146,0.219,0.2205,0.2219,0.2141,0,0,0,0,0]},{"header":{"parameterUnit":"m.s-1","parameterCategory":2,"la1":30.2991,"la2":30.254,"lo1":-89.0895,"lo2":-89.0444,"dy":0.0017,"dx":0.0017,"nx":28,"ny":28,"refTime":"2024-04-10T21:00:00:Z","depth":"4","parameterNumber":3,"parameterNumberName":"V-component_of_CURRENTS"},"data":[0,0,0,0,0,0,0,0,0,0,0,0,0,0,0,0,0,0,0,0,0,0,0,0,0,0,0,0,0,0,0,0,0,0,0,0,0,0,0,0,0,0,0,0,0,0,0,0,0,0,0,0,0,0,0,0,0,0,0.0336,0.0336,0,0.0323,0.0323,0.0323,0.0304,0.0304,0.0304,0.0303,0.0279,0.0278,0.0278,0,0,0,0,0,0,0,0,0,0,0,0,0,0.0322,0.0322,0.0336,0.0336,0.0336,0.0323,0.0323,0.0323,0.0304,0.0304,0.0304,0.0303,0.0279,0.0278,0.0278,0,0,0,0,0,0,0,0,0,0,0,0,0,0.0319,0.0322,0.0336,0.0326,0.0325,0.0323,0.0323,0.0323,0.0304,0.0304,0.0303,0.0303,0.0279,0.0278,0.0278,0.028,0,0,0.0276,0.0275,0,0,0,0,0,0,0,0,0.032,0.032,0.0327,0.0326,0.0325,0.0316,0.0309,0.0308,0.0304,0.0311,0.0303,0.0303,0.0291,0.0289,0.0286,0.0279,0.0278,0.0276,0.0275,0.0275,0.0275,0,0,0,0,0,0,0,0.032,0.032,0.0329,0.0327,0.0326,0.0314,0.0314,0.0309,0.0302,0.031,0.0309,0.031,0.029,0.0287,0.0286,0.0278,0.0276,0.0275,0.0275,0.0274,0.0269,0.0269,0,0,0,0,0,0,0.0325,0.032,0.033,0.0329,0.0323,0.0315,0.0314,0.0318,0.0302,0.03,0.031,0.0309,0.0288,0.0286,0.0285,0.0291,0.0275,0.0274,0.0274,0.0268,0.0269,0.0269,0,0,0,0,0,0,0.0325,0.0326,0.033,0.0325,0.0325,0.0316,0.032,0.0318,0.0323,0.0302,0.0299,0.0318,0.0288,0.0286,0.0289,0.0289,0.0274,0.0273,0.0268,0.0269,0.0269,0.03,0,0,0,0,0,0,0.0325,0.0326,0.0332,0.0326,0.0326,0.0333,0.0321,0.0318,0.0324,0.0322,0.0308,0.0305,0.0288,0.0291,0.0289,0.0288,0.0273,0.0268,0.0268,0.0269,0.0299,0.0302,0.0304,0,0,0,0,0,0.0324,0.0333,0.0333,0.0334,0.0334,0.0334,0.0333,0.0324,0.0325,0.0327,0.0322,0.0305,0.0292,0.0291,0.0288,0.0288,0.0268,0.0268,0.0269,0.0298,0.0301,0.0304,0,0,0,0,0,0,0.0328,0.0332,0.0331,0.034,0.034,0.0331,0.0336,0.0333,0.0331,0.0333,0.0316,0.0312,0.0312,0.03,0.0299,0.0287,0.0274,0.0274,0.0297,0.03,0.0302,0.0307,0.0272,0,0,0,0,0,0.0333,0.0343,0.0341,0.0349,0.0352,0.0348,0.0349,0.0344,0.0341,0.034,0.0333,0.0322,0.0311,0.0308,0.0296,0.0297,0.0269,0.0293,0.0295,0.0297,0.03,0.0257,0.0256,0.0271,0.0271,0.0271,0,0,0.0337,0.0341,0.0346,0.0351,0.0352,0.0364,0.0347,0.0353,0.0362,0.0338,0.0352,0.0334,0.0315,0.031,0.0308,0.0301,0.0279,0.0298,0.03,0.0301,0.0258,0.0256,0.0255,0.0271,0.0271,0.0271,0,0,0.0352,0.0355,0.0369,0.0374,0.038,0.0378,0.0385,0.0383,0.0381,0.039,0.0371,0.0358,0.0352,0.033,0.032,0.0332,0.0295,0.0327,0.0343,0.0302,0.03,0.0298,0.026,0.0255,0.0327,0.0327,0.0327,0,0.0358,0.0377,0.0373,0.039,0.0401,0.0391,0.0411,0.0407,0.0407,0.0405,0.0399,0.0374,0.0359,0.0341,0.0344,0.0337,0.0308,0.0333,0.0305,0.0302,0.03,0.0261,0.0255,0.0329,0.0328,0.0328,0.0328,0,0.0383,0.0402,0.0413,0.0435,0.0443,0.0458,0.0456,0.0461,0.046,0.045,0.0436,0.0408,0.039,0.0378,0.0367,0.0341,0.0325,0.0313,0.0296,0.03,0.0259,0.0252,0.0331,0.033,0.033,0.0329,0,0,0.039,0.0425,0.0431,0.0454,0.047,0.0482,0.0496,0.0501,0.0508,0.0488,0.0488,0.0456,0.0431,0.0417,0.0389,0.0352,0.0311,0.0329,0.0327,0.0291,0.0219,0.02,0.019,0.0291,0.029,0.0289,0.0197,0,0.0415,0.0459,0.0469,0.0515,0.0539,0.054,0.0556,0.0555,0.0545,0.054,0.0492,0.0482,0.0448,0.0439,0.0394,0.0337,0.0293,0.0337,0.0221,0.0218,0.02,0.0181,0.0286,0.0191,0.019,0.0188,0.0188,0,0.0439,0.0468,0.0518,0.0562,0.0573,0.0598,0.0619,0.0633,0.0612,0.0601,0.0567,0.053,0.0479,0.0451,0.0336,0.0365,0.0296,0.0243,0.0238,0.0204,0.0185,0.0187,0.0174,0.0175,0.0176,0.0177,0.0178,0,0.045,0.0503,0.0549,0.0565,0.0608,0.0631,0.0654,0.0651,0.0668,0.0642,0.0641,0.0564,0.0537,0.0436,0.0326,0.033,0.0194,0.0184,0.0097,0.0094,0.0126,0.0129,0.0095,0.0095,0.0095,0.0096,0.0096,0,0.0473,0.051,0.0562,0.0588,0.0645,0.0662,0.071,0.0714,0.0721,0.074,0.0679,0.0662,0.0531,0.0439,0.0332,0.019,0.0193,0.0092,0.0066,0.0142,0.0147,0.012,0.0124,0.0092,0.0093,0.0094,0.0094,0,0.048,0.0514,0.0572,0.063,0.0656,0.0698,0.0768,0.0792,0.0795,0.0816,0.0813,0.0735,0.061,0.0466,0.0299,0.0206,0.007,0.0018,0.011,0.0091,-0.0004,0.0003,-0.009,-0.0092,-0.0093,-0.0094,-0.0095,0,0.0487,0.0518,0.0605,0.0646,0.068,0.0748,0.0794,0.0829,0.0859,0.0856,0.0865,0.0759,0.0684,0.0437,0.0281,0.0059,0.0028,-0.0042,-0.0028,-0.0008,-0.0025,-0.0016,-0.0007,-0.0097,-0.0097,-0.0098,-0.0098,0,0.0497,0.0532,0.0581,0.0669,0.0734,0.0808,0.0876,0.0905,0.094,0.0942,0.0898,0.0771,0.0625,0.0432,0.0255,0.0099,0.0004,-0.0056,-0.0055,-0.0042,-0.0018,-0.0031,-0.0021,-0.0102,-0.0102,-0.0101,-0.0101,0,0.0504,0.0538,0.0607,0.0685,0.077,0.0845,0.0883,0.092,0.0954,0.0951,0.0932,0.0781,0.0696,0.0452,0.0293,0.013,0.0089,0.0043,0.0038,0.0041,0.0105,0.0156,0.0096,0,0,0,0,0,0.0504,0.0544,0.0616,0.0704,0.079,0.0845,0.0928,0.0957,0.0992,0.0966,0.0953,0.0817,0.0575,0.0474,0.0307,0.0257,0.0055,0.0055,-0.0003,-0.0127,-0.0122,-0.0072,0,0,0,0,0,0,0.0501,0.0566,0.0608,0.071,0.0772,0.087,0.0928,0.0952,0.0942,0.0946,0.0821,0.0769,0.0533,0.0666,0.03,0.0251,0.0191,-0.0053,-0.0057,-0.013,-0.0125,-0.0121,-0.0068,0,0,0,0,0]}]]